When you browse on this site, cookies collect data to enhance your experience and personalize the content and advertising you see.
Visit our Privacy Policy to learn more. By continuing to use the site, you agree to this use of cookies and data.
  • In Lithuania
  • List of Countries
  • For 7 days
  • Water Temperature
  • Satellite Maps
  • Weather Map
  • Weather Widgets
  • user-avatar
    Login

    Hourly Weather Sarajevo

    Today, 16 February, Saturday

    Time Temperature Precipitation Wind Pressure Humidity
    00:00 -5°C° 0 mm 3 mps 695 mmHg 94%
    01:00 -5°C° 0 mm 2 mps 695 mmHg 94%
    02:00 -5°C° 0 mm 2 mps 695 mmHg 94%
    03:00 -5°C° 0 mm 2 mps 695 mmHg 94%
    04:00 -5°C° 0 mm 2 mps 695 mmHg 94%
    05:00 -5°C° 0 mm 2 mps 695 mmHg 93%
    06:00 -5°C° 0 mm 2 mps 695 mmHg 91%
    07:00 -5°C° 0 mm 2 mps 695 mmHg 90%
    08:00 -3°C° 0 mm 2 mps 696 mmHg 85%
    09:00 -1°C° 0 mm 2 mps 696 mmHg 80%
    10:00 +2°C° 0 mm 2 mps 697 mmHg 74%
    11:00 +3°C° 0 mm 2 mps 697 mmHg 74%
    12:00 +4°C° 0 mm 2 mps 697 mmHg 75%
    13:00 +5°C° 0 mm 2 mps 697 mmHg 75%
    14:00 +5°C° 0 mm 2 mps 696 mmHg 76%
    15:00 +5°C° 0 mm 1 mps 696 mmHg 78%
    16:00 +5°C° 0 mm 1 mps 696 mmHg 79%
    17:00 +4°C° 0 mm 1 mps 696 mmHg 80%
    18:00 +1°C° 0 mm 2 mps 695 mmHg 81%
    19:00 -2°C° 0 mm 2 mps 695 mmHg 82%
    20:00 -2°C° 0 mm 2 mps 695 mmHg 79%
    21:00 -2°C° 0 mm 2 mps 695 mmHg 76%
    22:00 -2°C° 0 mm 2 mps 695 mmHg 73%
    23:00 -2°C° 0 mm 2 mps 695 mmHg 70%

    Tomorrow, 17 February, Sunday

    Time Temperature Precipitation Wind Pressure Humidity
    00:00 -2°C° 0 mm 2 mps 695 mmHg 67%
    01:00 0°C° 0 mm 1 mps 695 mmHg 65%
    02:00 0°C° 0 mm 1 mps 695 mmHg 62%
    03:00 0°C° 0 mm 1 mps 694 mmHg 60%
    04:00 0°C° 0 mm 1 mps 694 mmHg 58%
    05:00 0°C° 0 mm 1 mps 694 mmHg 56%
    06:00 0°C° 0 mm 1 mps 694 mmHg 55%
    07:00 0°C° 0 mm 1 mps 694 mmHg 54%
    08:00 +3°C° 0 mm 1 mps 694 mmHg 57%
    09:00 +5°C° 0 mm 1 mps 695 mmHg 61%
    10:00 +7°C° 0 mm 1 mps 695 mmHg 65%
    11:00 +8°C° 0 mm 1 mps 695 mmHg 64%
    12:00 +8°C° 0 mm 0 mps 695 mmHg 64%
    13:00 +9°C° 0 mm 0 mps 695 mmHg 63%
    14:00 +8°C° 0 mm 0 mps 695 mmHg 66%
    15:00 +8°C° 0 mm 0 mps 694 mmHg 69%
    16:00 +7°C° 0 mm 0 mps 694 mmHg 71%
    17:00 +5°C° 0 mm 0 mps 694 mmHg 72%
    18:00 +5°C° 0 mm 1 mps 693 mmHg 72%
    19:00 +3°C° 0 mm 1 mps 693 mmHg 72%
    20:00 +3°C° 0 mm 1 mps 693 mmHg 71%
    21:00 +3°C° 0 mm 1 mps 693 mmHg 69%
    22:00 +3°C° 0 mm 1 mps 693 mmHg 67%
    23:00 +3°C° 0 mm 1 mps 693 mmHg 65%

    Day after tomorrow, 18 February, Monday

    Time Temperature Precipitation Wind Pressure Humidity
    00:00 +3°C° 0 mm 1 mps 693 mmHg 63%
    01:00 +3°C° 0 mm 1 mps 693 mmHg 61%
    02:00 +2°C° 0 mm 1 mps 692 mmHg 60%
    03:00 +2°C° 0 mm 1 mps 692 mmHg 59%
    04:00 +2°C° 0 mm 1 mps 692 mmHg 58%
    05:00 +2°C° 0 mm 1 mps 692 mmHg 58%
    06:00 +2°C° 0 mm 1 mps 692 mmHg 58%
    07:00 +2°C° 0 mm 1 mps 692 mmHg 57%
    08:00 +4°C° 0 mm 1 mps 692 mmHg 58%
    09:00 +5°C° 0 mm 0 mps 693 mmHg 59%
    10:00 +7°C° 0 mm 0 mps 693 mmHg 60%
    11:00 +8°C° 0 mm 0 mps 693 mmHg 58%
    12:00 +9°C° 0 mm 0 mps 693 mmHg 57%
    13:00 +11°C° 0 mm 1 mps 693 mmHg 55%
    14:00 +10°C° 0 mm 1 mps 692 mmHg 60%
    15:00 +9°C° 0 mm 1 mps 692 mmHg 64%
    16:00 +9°C° 0 mm 1 mps 692 mmHg 69%
    17:00 +7°C° 0 mm 1 mps 692 mmHg 72%
    18:00 +4°C° 0 mm 0 mps 691 mmHg 75%
    19:00 +3°C° 0 mm 0 mps 691 mmHg 79%
    20:00 +4°C° 0 mm 1 mps 691 mmHg 79%
    21:00 +3°C° 0 mm 1 mps 692 mmHg 78%
    22:00 +3°C° 0 mm 1 mps 692 mmHg 78%
    23:00 +3°C° 0 mm 1 mps 692 mmHg 78%

    19 February, Tuesday

    Time Temperature Precipitation Wind Pressure Humidity
    00:00 +3°C° 0 mm 1 mps 692 mmHg 78%
    01:00 +3°C° 0 mm 1 mps 692 mmHg 78%
    02:00 +3°C° 0 mm 1 mps 691 mmHg 79%
    03:00 +3°C° 0 mm 1 mps 691 mmHg 79%
    04:00 +2°C° 0 mm 1 mps 691 mmHg 80%
    05:00 +2°C° 0 mm 1 mps 691 mmHg 79%
    06:00 +2°C° 0 mm 1 mps 691 mmHg 78%
    07:00 +2°C° 0 mm 1 mps 691 mmHg 78%
    08:00 +4°C° 0 mm 1 mps 692 mmHg 73%
    09:00 +6°C° 0 mm 1 mps 692 mmHg 69%
    10:00 +8°C° 0 mm 1 mps 693 mmHg 65%
    11:00 +7°C° 0 mm 2 mps 693 mmHg 63%
    12:00 +8°C° 0 mm 2 mps 692 mmHg 61%
    13:00 +9°C° 0 mm 2 mps 692 mmHg 60%
    14:00 +8°C° 0 mm 2 mps 692 mmHg 64%
    15:00 +9°C° 0 mm 1 mps 692 mmHg 69%
    16:00 +8°C° 0 mm 1 mps 692 mmHg 74%
    17:00 +7°C° 0 mm 1 mps 692 mmHg 79%
    18:00 +5°C° 0 mm 1 mps 691 mmHg 84%
    19:00 +3°C° 0 mm 1 mps 691 mmHg 89%
    20:00 +3°C° 0 mm 1 mps 692 mmHg 90%
    21:00 +3°C° 0 mm 1 mps 692 mmHg 91%
    22:00 +3°C° 0 mm 1 mps 692 mmHg 92%
    23:00 +3°C° 0 mm 1 mps 692 mmHg 92%

    20 February, Wednesday

    Time Temperature Precipitation Wind Pressure Humidity
    00:00 +3°C° 0 mm 1 mps 692 mmHg 92%
    01:00 +2°C° 0 mm 1 mps 692 mmHg 92%
    02:00 +2°C° 0 mm 1 mps 692 mmHg 91%
    03:00 +2°C° 0 mm 1 mps 692 mmHg 90%
    04:00 +2°C° 0 mm 1 mps 692 mmHg 89%
    05:00 +2°C° 0 mm 1 mps 692 mmHg 88%
    06:00 +1°C° 0 mm 0 mps 692 mmHg 86%
    07:00 +1°C° 0 mm 0 mps 692 mmHg 85%
    08:00 +3°C° 0 mm 0 mps 693 mmHg 78%
    09:00 +5°C° 0 mm 0 mps 693 mmHg 71%
    10:00 +7°C° 0 mm 0 mps 694 mmHg 64%
    11:00 +8°C° 0 mm 0 mps 694 mmHg 62%
    12:00 +8°C° 0 mm 0 mps 694 mmHg 59%
    13:00 +10°C° 0 mm 1 mps 694 mmHg 57%
    14:00 +10°C° 0 mm 1 mps 694 mmHg 61%
    15:00 +9°C° 0 mm 1 mps 694 mmHg 65%
    16:00 +8°C° 0 mm 0 mps 693 mmHg 68%
    17:00 +6°C° 0 mm 0 mps 693 mmHg 73%
    18:00 +4°C° 0 mm 0 mps 693 mmHg 79%
    19:00 +3°C° 0 mm 0 mps 693 mmHg 84%
    20:00 +3°C° 0 mm 0 mps 693 mmHg 84%
    21:00 +2°C° 0 mm 0 mps 693 mmHg 84%
    22:00 +2°C° 0 mm 0 mps 694 mmHg 84%
    23:00 +2°C° 0 mm 0 mps 694 mmHg 83%

    21 February, Thursday

    Time Temperature Precipitation Wind Pressure Humidity
    00:00 +3°C° 0 mm 1 mps 694 mmHg 83%
    01:00 +3°C° 0 mm 1 mps 694 mmHg 83%
    02:00 +3°C° 0 mm 1 mps 693 mmHg 82%
    03:00 +3°C° 0 mm 1 mps 693 mmHg 82%
    04:00 +3°C° 0 mm 1 mps 693 mmHg 82%
    05:00 +3°C° 0 mm 1 mps 693 mmHg 81%
    06:00 +2°C° 0 mm 1 mps 693 mmHg 81%
    07:00 +2°C° 0 mm 1 mps 693 mmHg 81%
    08:00 +4°C° 0 mm 1 mps 694 mmHg 73%
    09:00 +6°C° 0 mm 1 mps 694 mmHg 66%
    10:00 +8°C° 0 mm 1 mps 695 mmHg 59%
    11:00 +9°C° 0 mm 1 mps 695 mmHg 56%
    12:00 +10°C° 0 mm 1 mps 695 mmHg 53%
    13:00 +11°C° 0 mm 1 mps 695 mmHg 50%
    14:00 +10°C° 0 mm 1 mps 694 mmHg 55%
    15:00 +10°C° 0 mm 1 mps 694 mmHg 59%
    16:00 +9°C° 0 mm 1 mps 694 mmHg 63%
    17:00 +8°C° 0 mm 1 mps 693 mmHg 68%
    18:00 +6°C° 0 mm 1 mps 693 mmHg 73%
    19:00 +4°C° 0 mm 1 mps 693 mmHg 78%
    20:00 +4°C° 0 mm 1 mps 693 mmHg 79%
    21:00 +4°C° 0 mm 1 mps 693 mmHg 79%
    22:00 +4°C° 0 mm 1 mps 693 mmHg 79%
    23:00 +3°C° 0 mm 1 mps 693 mmHg 79%
    Show more